Weather History for Spokane Fairchild, WA

Change the Weather History Date:

Sunday, August 18, 2013

  Actual Average Record
Temperature  
Mean Temperature 69 °F -  
Max Temperature 83 °F 80 °F 94 °F (2008)
Min Temperature 55 °F 54 °F 44 °F (1998)
Cooling Degree Days 4    
Growing Degree Days 19 (Base 50)    
Moisture  
Dew Point 45 °F    
Average Humidity 43    
Maximum Humidity 77    
Minimum Humidity 22    
Precipitation  
Precipitation 0.00 in - - ()
Sea Level Pressure  
Sea Level Pressure 30.02 in    
Wind  
Wind Speed 8 mph (SSW)    
Max Wind Speed 17 mph    
Max Gust Speed 23 mph    
Visibility 10 miles    
Events      
Averages and records for this station are not official NWS values.
T = Trace of Precipitation, MM = Missing Value Source: NWS Daily Summary

Daily Weather History Graph

Daily Weather History Graph

Search for Another Location

Airport:

Trip Planner

Search our weather history database for the weather conditions in past years. The results will help you decide how hot, cold, wet, or windy it might be!

Date:

Astronomy

Aug. 18, 2013 Rise Set
Actual Time 5:50 AM PDT 7:56 PM PDT
Civil Twilight 5:17 AM PDT 8:30 PM PDT
Nautical Twilight 4:35 AM PDT 9:11 PM PDT
Astronomical Twilight 3:49 AM PDT 9:57 PM PDT
Moon 6:10 PM PDT (8/18) 2:59 AM PDT (8/18)
Length of Visible Light 15h 12m
Length of Day
14h 06m
Waxing Gibbous, 93% of the Moon is Illuminated
Aug 18
Waxing Gibbous
Aug 20
Full
Aug 28
Last Quarter
Sep 5
New
Sep 12
First Quarter

Hourly Weather History & Observations

Time (PDT) Temp. Dew Point Humidity Pressure Visibility Wind Dir Wind Speed Gust Speed Precip Events Conditions
12:58 AM 61.5 °F 44.1 °F 53% 29.97 in 10.0 mi South 4.6 mph - N/A   Clear
1:58 AM 60.1 °F 45.3 °F 58% 29.98 in 10.0 mi South 3.5 mph - N/A   Clear
2:58 AM 59.4 °F 45.9 °F 61% 29.99 in 10.0 mi South 9.2 mph - N/A   Clear
3:58 AM 58.8 °F 46.4 °F 63% 30.00 in 10.0 mi South 10.4 mph - N/A   Clear
4:58 AM 55.0 °F 46.4 °F 73% 30.01 in 10.0 mi South 6.9 mph - N/A   Clear
5:58 AM 55.0 °F 47.8 °F 77% 30.03 in 10.0 mi South 5.8 mph - N/A   Clear
6:58 AM 56.8 °F 48.0 °F 72% 30.05 in 10.0 mi SSW 6.9 mph - N/A   Clear
7:58 AM 61.5 °F 48.2 °F 62% 30.06 in 10.0 mi Variable 3.5 mph - N/A   Clear
8:58 AM 66.0 °F 48.2 °F 53% 30.06 in 10.0 mi SSW 5.8 mph - N/A   Clear
9:58 AM 71.1 °F 46.2 °F 41% 30.07 in 10.0 mi Variable 5.8 mph - N/A   Clear
10:58 AM 74.3 °F 47.1 °F 38% 30.07 in 10.0 mi SW 11.5 mph - N/A   Clear
11:58 AM 76.6 °F 47.3 °F 35% 30.06 in 10.0 mi SSW 11.5 mph 19.6 mph N/A   Clear
12:12 PM 77.0 °F 48.2 °F 36% 30.09 in 10.0 mi South 13.8 mph - N/A   Clear
12:58 PM 78.6 °F 47.3 °F 33% 30.05 in 10.0 mi SW 12.7 mph 18.4 mph N/A   Clear
1:03 PM 78.8 °F 48.2 °F 34% 30.08 in 10.0 mi South 17.3 mph 21.9 mph N/A   Clear
1:45 PM 80.6 °F 48.2 °F 32% 30.07 in 10.0 mi South 11.5 mph 20.7 mph N/A   Clear
1:58 PM 81.3 °F 47.1 °F 30% 30.04 in 10.0 mi SSW 12.7 mph 18.4 mph N/A   Clear
2:58 PM 83.3 °F 41.7 °F 23% 30.02 in 10.0 mi SW 16.1 mph - N/A   Clear
3:58 PM 83.3 °F 42.4 °F 24% 30.00 in 10.0 mi SSW 12.7 mph 23.0 mph N/A   Clear
4:58 PM 82.9 °F 39.7 °F 22% 29.99 in 10.0 mi SSW 9.2 mph - N/A   Clear
5:58 PM 82.4 °F 41.9 °F 24% 29.98 in 10.0 mi SSW 11.5 mph - N/A   Clear
6:58 PM 80.6 °F 43.0 °F 26% 29.97 in 10.0 mi SW 10.4 mph - N/A   Clear
7:58 PM 73.8 °F 42.4 °F 32% 29.97 in 10.0 mi SW 5.8 mph - N/A   Clear
8:58 PM 70.3 °F 42.4 °F 36% 29.99 in 10.0 mi SW 8.1 mph - N/A   Clear
9:58 PM 68.9 °F 43.2 °F 39% 29.98 in 10.0 mi SW 9.2 mph - N/A   Clear
10:58 PM 68.0 °F 44.4 °F 43% 29.98 in 10.0 mi SE 2.3 mph - N/A   Clear
11:58 PM 65.8 °F 45.1 °F 47% 29.97 in 10.0 mi South 5.8 mph - N/A   Clear